Weather History for Billings, MT

Change the Weather History Date:

Saturday, March 24, 2012

  Actual Average Record
Temperature  
Mean Temperature 39 °F 40 °F  
Max Temperature 45 °F 51 °F 78 °F (1993)
Min Temperature 32 °F 29 °F -12 °F (1955)
Degree Days  
Heating Degree Days 26 25  
Month to date heating degree days 466 676  
Since 1 July heating degree days 4974 5641  
Cooling Degree Days 0 0  
Month to date cooling degree days 0 0  
Year to date cooling degree days 0 0  
Moisture  
Dew Point 32 °F    
Average Humidity 77    
Maximum Humidity 89    
Minimum Humidity 65    
Precipitation  
Precipitation 0.00 in 0.04 in 0.69 in (1942)
Month to date precipitation 0.70 0.75  
Year to date precipitation 1.55 1.71  
Snow  
Snow 0.00 in 0.40 in 6.90 in (1954)
Month to date snowfall 5.9 7.8  
Since 1 July snowfall 34.7 42.3  
Snow Depth 0.00 in    
Sea Level Pressure  
Sea Level Pressure 30.16 in    
Wind  
Wind Speed 10 mph (NE)    
Max Wind Speed 17 mph    
Max Gust Speed 23 mph    
Visibility 10 miles    
Events      
T = Trace of Precipitation, MM = Missing Value Source: NWS Daily Summary

Daily Weather History Graph

Daily Weather History Graph

Search for Another Location

Airport:

Trip Planner

Search our weather history database for the weather conditions in past years. The results will help you decide how hot, cold, wet, or windy it might be!

Date:

Astronomy

Mar. 24, 2012 Rise Set
Actual Time 7:08 AM MDT 7:32 PM MDT
Civil Twilight 6:38 AM MDT 8:02 PM MDT
Nautical Twilight 6:03 AM MDT 8:37 PM MDT
Astronomical Twilight 5:27 AM MDT 9:14 PM MDT
Moon 7:40 AM MDT (3/24) 10:05 PM MDT (3/24)
Length of Visible Light 13h 23m
Length of Day
12h 24m
Waxing Crescent, 4% of the Moon is Illuminated
Mar 24
Waxing Crescent
Mar 30
First Quarter
Apr 6
Full
Apr 13
Last Quarter
Apr 21
New

Hourly Weather History & Observations

Time (MDT) Temp. Windchill Dew Point Humidity Pressure Visibility Wind Dir Wind Speed Gust Speed Precip Events Conditions
12:53 AM 37.0 °F - 30.9 °F 79% 30.11 in 10.0 mi Calm Calm - N/A   Partly Cloudy
1:53 AM 35.1 °F 31.0 °F 30.0 °F 82% 30.14 in 10.0 mi North 4.6 mph - N/A   Partly Cloudy
2:53 AM 33.8 °F 27.7 °F 30.2 °F 87% 30.14 in 10.0 mi NNE 6.9 mph - N/A   Partly Cloudy
3:21 AM 33.8 °F 26.4 °F 28.4 °F 81% 30.14 in 10.0 mi NNE 9.2 mph - N/A   Mostly Cloudy
3:53 AM 33.1 °F 24.9 °F 30.9 °F 92% 30.18 in 10.0 mi NNE 10.4 mph - N/A   Mostly Cloudy
4:27 AM 33.8 °F 25.3 °F 32.0 °F 93% 30.16 in 10.0 mi NE 11.5 mph - N/A   Overcast
4:53 AM 35.1 °F 27.4 °F 32.0 °F 89% 30.19 in 10.0 mi ENE 10.4 mph - N/A   Overcast
5:29 AM 35.6 °F 29.2 °F 32.0 °F 87% 30.16 in 10.0 mi ENE 8.1 mph - N/A   Overcast
5:53 AM 35.1 °F 26.9 °F 32.0 °F 89% 30.19 in 10.0 mi ENE 11.5 mph - N/A   Mostly Cloudy
6:53 AM 35.1 °F 28.6 °F 32.0 °F 89% 30.21 in 10.0 mi ENE 8.1 mph - N/A   Overcast
7:53 AM 35.1 °F 27.9 °F 32.0 °F 89% 30.24 in 10.0 mi ESE 9.2 mph - N/A   Overcast
8:53 AM 36.0 °F 29.0 °F 32.0 °F 86% 30.25 in 10.0 mi East 9.2 mph - N/A   Overcast
9:53 AM 36.0 °F 29.0 °F 32.0 °F 86% 30.25 in 10.0 mi ENE 9.2 mph - N/A   Overcast
10:53 AM 37.0 °F 30.4 °F 32.0 °F 82% 30.25 in 10.0 mi ENE 9.2 mph - N/A   Overcast
11:53 AM 37.9 °F 30.5 °F 32.0 °F 79% 30.23 in 10.0 mi ENE 11.5 mph - N/A   Overcast
12:53 PM 37.9 °F 29.6 °F 32.0 °F 79% 30.21 in 10.0 mi ENE 13.8 mph - N/A   Overcast
1:51 PM 39.2 °F 30.8 °F 33.8 °F 81% 30.12 in 10.0 mi NE 15.0 mph - N/A   Overcast
1:53 PM 39.9 °F 31.8 °F 33.1 °F 77% 30.18 in 10.0 mi NE 15.0 mph - N/A   Overcast
2:53 PM 43.0 °F 36.0 °F 33.1 °F 68% 30.16 in 10.0 mi NNE 13.8 mph - N/A   Mostly Cloudy
3:53 PM 44.6 °F 37.4 °F 33.8 °F 66% 30.08 in 10.0 mi NE 16.1 mph - N/A   Partly Cloudy
4:53 PM 46.0 °F 39.3 °F 33.1 °F 61% 30.11 in 10.0 mi NNE 16.1 mph - N/A   Partly Cloudy
5:53 PM 45.0 °F 37.9 °F 33.1 °F 63% 30.12 in 10.0 mi NE 16.1 mph - N/A   Clear
6:53 PM 43.0 °F 36.4 °F 32.0 °F 65% 30.12 in 10.0 mi NNE 12.7 mph - N/A   Clear
7:53 PM 39.9 °F 33.4 °F 32.0 °F 73% 30.12 in 10.0 mi NNE 10.4 mph - N/A   Clear
8:53 PM 39.0 °F 32.3 °F 30.9 °F 73% 30.12 in 10.0 mi North 10.4 mph - N/A   Clear
9:53 PM 37.0 °F 29.3 °F 30.9 °F 79% 30.12 in 10.0 mi North 11.5 mph - N/A   Clear
10:53 PM 37.0 °F 28.9 °F 30.0 °F 76% 30.11 in 10.0 mi North 12.7 mph - N/A   Clear
11:53 PM 35.1 °F 26.9 °F 30.0 °F 82% 30.10 in 10.0 mi NNW 11.5 mph - N/A   Clear